Year,Month,Day,Hour,Minute,Value (Times are PST for temperature in C)
2006,08,15,00,00,14.20
2006,08,15,00,01,14.20
2006,08,15,00,02,14.20
2006,08,15,00,03,14.20
2006,08,15,00,04,14.20
2006,08,15,00,05,14.20
2006,08,15,00,06,14.20
2006,08,15,00,07,14.20
2006,08,15,00,08,14.20
2006,08,15,00,09,14.20
2006,08,15,00,10,14.10
2006,08,15,00,11,14.10
2006,08,15,00,12,14.10
2006,08,15,00,13,14.10
2006,08,15,00,14,14.10
2006,08,15,00,15,14.10
2006,08,15,00,16,14.10
2006,08,15,00,17,14.10
2006,08,15,00,18,14.10
2006,08,15,00,19,14.10
2006,08,15,00,20,14.00
2006,08,15,00,21,14.00
2006,08,15,00,22,14.00
2006,08,15,00,23,14.00
2006,08,15,00,24,14.00
2006,08,15,00,25,14.00
2006,08,15,00,26,13.90
2006,08,15,00,27,13.90
2006,08,15,00,28,13.90
2006,08,15,00,29,13.80
2006,08,15,00,30,13.80
2006,08,15,00,31,13.80
2006,08,15,00,32,13.80
2006,08,15,00,33,13.80
2006,08,15,00,34,13.80
2006,08,15,00,35,13.80
2006,08,15,00,36,13.80
2006,08,15,00,37,13.80
2006,08,15,00,38,13.80
2006,08,15,00,39,13.80
2006,08,15,00,40,13.80
2006,08,15,00,41,13.80
2006,08,15,00,42,13.70
2006,08,15,00,43,13.70
2006,08,15,00,44,13.70
2006,08,15,00,45,13.70
2006,08,15,00,46,13.70
2006,08,15,00,47,13.70
2006,08,15,00,48,13.70
2006,08,15,00,49,13.70
2006,08,15,00,50,13.70
2006,08,15,00,51,13.70
2006,08,15,00,52,13.70
2006,08,15,00,53,13.70
2006,08,15,00,54,13.60
2006,08,15,00,55,13.60
2006,08,15,00,56,13.60
2006,08,15,00,57,13.60
2006,08,15,00,58,13.60
2006,08,15,00,59,13.50
2006,08,15,01,00,13.50
2006,08,15,01,01,13.50
2006,08,15,01,02,13.40
2006,08,15,01,03,13.40
2006,08,15,01,04,13.40
2006,08,15,01,05,13.40
2006,08,15,01,06,13.30
2006,08,15,01,07,13.30
2006,08,15,01,08,13.30
2006,08,15,01,09,13.30
2006,08,15,01,10,13.30
2006,08,15,01,11,13.30
2006,08,15,01,12,13.30
2006,08,15,01,13,13.30
2006,08,15,01,14,13.30
2006,08,15,01,15,13.20
2006,08,15,01,16,13.20
2006,08,15,01,17,13.20
2006,08,15,01,18,13.20
2006,08,15,01,19,13.20
2006,08,15,01,20,13.20
2006,08,15,01,21,13.10
2006,08,15,01,22,13.10
2006,08,15,01,23,13.10
2006,08,15,01,24,13.00
2006,08,15,01,25,12.90
2006,08,15,01,26,12.80
2006,08,15,01,27,12.80
2006,08,15,01,28,12.80
2006,08,15,01,29,12.80
2006,08,15,01,30,12.70
2006,08,15,01,31,12.70
2006,08,15,01,32,12.60
2006,08,15,01,33,12.60
2006,08,15,01,34,12.50
2006,08,15,01,35,12.50
2006,08,15,01,36,12.50
2006,08,15,01,37,12.40
2006,08,15,01,38,12.40
2006,08,15,01,39,12.30
2006,08,15,01,40,12.30
2006,08,15,01,41,12.30
2006,08,15,01,42,12.30
2006,08,15,01,43,12.30
2006,08,15,01,44,12.30
2006,08,15,01,45,12.30
2006,08,15,01,46,12.30
2006,08,15,01,47,12.30
2006,08,15,01,48,12.30
2006,08,15,01,49,12.30
2006,08,15,01,50,12.30
2006,08,15,01,51,12.30
2006,08,15,01,52,12.30
2006,08,15,01,53,12.30
2006,08,15,01,54,12.20
2006,08,15,01,55,12.20
2006,08,15,01,56,12.20
2006,08,15,01,57,12.20
2006,08,15,01,58,12.20
2006,08,15,01,59,12.20
2006,08,15,02,00,12.20
2006,08,15,02,01,12.20
2006,08,15,02,02,12.20
2006,08,15,02,03,12.20
2006,08,15,02,04,12.10
2006,08,15,02,05,12.10
2006,08,15,02,06,12.10
2006,08,15,02,07,12.10
2006,08,15,02,08,12.00
2006,08,15,02,09,12.00
2006,08,15,02,10,12.00
2006,08,15,02,11,11.90
2006,08,15,02,12,11.90
2006,08,15,02,13,11.80
2006,08,15,02,14,11.80
2006,08,15,02,15,11.80
2006,08,15,02,16,11.80
2006,08,15,02,17,11.80
2006,08,15,02,18,11.70
2006,08,15,02,19,11.70
2006,08,15,02,20,11.70
2006,08,15,02,21,11.60
2006,08,15,02,22,11.60
2006,08,15,02,23,11.60
2006,08,15,02,24,11.60
2006,08,15,02,25,11.60
2006,08,15,02,26,11.60
2006,08,15,02,27,11.60
2006,08,15,02,28,11.60
2006,08,15,02,29,11.60
2006,08,15,02,30,11.60
2006,08,15,02,31,11.50
2006,08,15,02,32,11.40
2006,08,15,02,33,11.40
2006,08,15,02,34,11.40
2006,08,15,02,35,11.40
2006,08,15,02,36,11.40
2006,08,15,02,37,11.40
2006,08,15,02,38,11.40
2006,08,15,02,39,11.40
2006,08,15,02,40,11.40
2006,08,15,02,41,11.40
2006,08,15,02,42,11.40
2006,08,15,02,43,11.40
2006,08,15,02,44,11.40
2006,08,15,02,45,11.40
2006,08,15,02,46,11.40
2006,08,15,02,47,11.40
2006,08,15,02,48,11.40
2006,08,15,02,49,11.40
2006,08,15,02,50,11.40
2006,08,15,02,51,11.40
2006,08,15,02,52,11.40
2006,08,15,02,53,11.40
2006,08,15,02,54,11.40
2006,08,15,02,55,11.40
2006,08,15,02,56,11.40
2006,08,15,02,57,11.40
2006,08,15,02,58,11.40
2006,08,15,02,59,11.40
2006,08,15,03,00,11.40
2006,08,15,03,01,11.40
2006,08,15,03,02,11.30
2006,08,15,03,03,11.30
2006,08,15,03,04,11.30
2006,08,15,03,05,11.30
2006,08,15,03,06,11.30
2006,08,15,03,07,11.20
2006,08,15,03,08,11.20
2006,08,15,03,09,11.20
2006,08,15,03,10,11.20
2006,08,15,03,11,11.10
2006,08,15,03,12,11.10
2006,08,15,03,13,11.10
2006,08,15,03,14,11.10
2006,08,15,03,15,11.10
2006,08,15,03,16,11.10
2006,08,15,03,17,11.10
2006,08,15,03,18,11.10
2006,08,15,03,19,11.10
2006,08,15,03,20,11.10
2006,08,15,03,21,11.10
2006,08,15,03,22,11.00
2006,08,15,03,23,10.90
2006,08,15,03,24,10.90
2006,08,15,03,25,10.90
2006,08,15,03,26,10.90
2006,08,15,03,27,10.90
2006,08,15,03,28,10.90
2006,08,15,03,29,10.90
2006,08,15,03,30,10.90
2006,08,15,03,31,10.90
2006,08,15,03,32,10.90
2006,08,15,03,33,10.90
2006,08,15,03,34,10.80
2006,08,15,03,35,10.80
2006,08,15,03,36,10.80
2006,08,15,03,37,10.70
2006,08,15,03,38,10.70
2006,08,15,03,39,10.70
2006,08,15,03,40,10.70
2006,08,15,03,41,10.70
2006,08,15,03,42,10.70
2006,08,15,03,43,10.70
2006,08,15,03,44,10.70
2006,08,15,03,45,10.70
2006,08,15,03,46,10.70
2006,08,15,03,47,10.70
2006,08,15,03,48,10.70
2006,08,15,03,49,10.70
2006,08,15,03,50,10.70
2006,08,15,03,51,10.70
2006,08,15,03,52,10.70
2006,08,15,03,53,10.70
2006,08,15,03,54,10.70
2006,08,15,03,55,10.70
2006,08,15,03,56,10.70
2006,08,15,03,57,10.70
2006,08,15,03,58,10.70
2006,08,15,03,59,10.70
2006,08,15,04,00,10.70
2006,08,15,04,01,10.70
2006,08,15,04,02,10.70
2006,08,15,04,03,10.70
2006,08,15,04,04,10.60
2006,08,15,04,05,10.60
2006,08,15,04,06,10.60
2006,08,15,04,07,10.60
2006,08,15,04,08,10.60
2006,08,15,04,09,10.60
2006,08,15,04,10,10.60
2006,08,15,04,11,10.60
2006,08,15,04,12,10.60
2006,08,15,04,13,10.60
2006,08,15,04,14,10.60
2006,08,15,04,15,10.60
2006,08,15,04,16,10.60
2006,08,15,04,17,10.60
2006,08,15,04,18,10.60
2006,08,15,04,19,10.60
2006,08,15,04,20,10.60
2006,08,15,04,21,10.60
2006,08,15,04,22,10.60
2006,08,15,04,23,10.60
2006,08,15,04,24,10.60
2006,08,15,04,25,10.70
2006,08,15,04,26,10.70
2006,08,15,04,27,10.80
2006,08,15,04,28,10.80
2006,08,15,04,29,10.80
2006,08,15,04,30,10.90
2006,08,15,04,31,10.90
2006,08,15,04,32,10.90
2006,08,15,04,33,10.90
2006,08,15,04,34,10.90
2006,08,15,04,35,10.90
2006,08,15,04,36,11.00
2006,08,15,04,37,11.10
2006,08,15,04,38,11.10
2006,08,15,04,39,11.10
2006,08,15,04,40,11.10
2006,08,15,04,41,11.10
2006,08,15,04,42,11.10
2006,08,15,04,43,10.90
2006,08,15,04,44,10.90
2006,08,15,04,45,10.90
2006,08,15,04,46,10.90
2006,08,15,04,47,10.90
2006,08,15,04,48,10.80
2006,08,15,04,49,10.80
2006,08,15,04,50,10.80
2006,08,15,04,51,10.80
2006,08,15,04,52,10.80
2006,08,15,04,53,10.80
2006,08,15,04,54,10.80
2006,08,15,04,55,10.80
2006,08,15,04,56,10.80
2006,08,15,04,57,10.80
2006,08,15,04,58,10.80
2006,08,15,04,59,10.80
2006,08,15,05,00,10.90
2006,08,15,05,01,10.80
2006,08,15,05,02,10.80
2006,08,15,05,03,10.80
2006,08,15,05,04,10.90
2006,08,15,05,05,10.90
2006,08,15,05,06,10.90
2006,08,15,05,07,10.80
2006,08,15,05,08,10.80
2006,08,15,05,09,10.80
2006,08,15,05,10,10.80
2006,08,15,05,11,10.80
2006,08,15,05,12,10.70
2006,08,15,05,13,10.80
2006,08,15,05,14,10.80
2006,08,15,05,15,10.80
2006,08,15,05,16,10.80
2006,08,15,05,17,10.80
2006,08,15,05,18,10.80
2006,08,15,05,19,10.80
2006,08,15,05,20,10.80
2006,08,15,05,21,10.80
2006,08,15,05,22,10.70
2006,08,15,05,23,10.70
2006,08,15,05,24,10.70
2006,08,15,05,25,10.70
2006,08,15,05,26,10.70
2006,08,15,05,27,10.70
2006,08,15,05,28,10.70
2006,08,15,05,29,10.70
2006,08,15,05,30,10.70
2006,08,15,05,31,10.70
2006,08,15,05,32,10.70
2006,08,15,05,33,10.70
2006,08,15,05,34,10.70
2006,08,15,05,35,10.70
2006,08,15,05,36,10.70
2006,08,15,05,37,10.70
2006,08,15,05,38,10.70
2006,08,15,05,39,10.70
2006,08,15,05,40,10.70
2006,08,15,05,41,10.70
2006,08,15,05,42,10.70
2006,08,15,05,43,10.70
2006,08,15,05,44,10.70
2006,08,15,05,45,10.60
2006,08,15,05,46,10.60
2006,08,15,05,47,10.60
2006,08,15,05,48,10.60
2006,08,15,05,49,10.60
2006,08,15,05,50,10.60
2006,08,15,05,51,10.60
2006,08,15,05,52,10.60
2006,08,15,05,53,10.60
2006,08,15,05,54,10.60
2006,08,15,05,55,10.70
2006,08,15,05,56,10.70
2006,08,15,05,57,10.70
2006,08,15,05,58,10.70
2006,08,15,05,59,10.70
2006,08,15,06,00,10.70
2006,08,15,06,01,10.70
2006,08,15,06,02,10.70
2006,08,15,06,03,10.70
2006,08,15,06,04,10.70
2006,08,15,06,05,10.70
2006,08,15,06,06,10.70
2006,08,15,06,07,10.80
2006,08,15,06,08,10.80
2006,08,15,06,09,10.80
2006,08,15,06,10,10.80
2006,08,15,06,11,10.80
2006,08,15,06,12,10.70
2006,08,15,06,13,10.70
2006,08,15,06,14,10.70
2006,08,15,06,15,10.70
2006,08,15,06,16,10.70
2006,08,15,06,17,10.80
2006,08,15,06,18,10.80
2006,08,15,06,19,10.80
2006,08,15,06,20,10.80
2006,08,15,06,21,10.80
2006,08,15,06,22,10.80
2006,08,15,06,23,10.80
2006,08,15,06,24,10.70
2006,08,15,06,25,10.70
2006,08,15,06,26,10.70
2006,08,15,06,27,10.80
2006,08,15,06,28,10.80
2006,08,15,06,29,10.70
2006,08,15,06,30,10.70
2006,08,15,06,31,10.70
2006,08,15,06,32,10.70
2006,08,15,06,33,10.70
2006,08,15,06,34,10.70
2006,08,15,06,35,10.70
2006,08,15,06,36,10.70
2006,08,15,06,37,10.70
2006,08,15,06,38,10.70
2006,08,15,06,39,10.70
2006,08,15,06,40,10.80
2006,08,15,06,41,10.80
2006,08,15,06,42,10.80
2006,08,15,06,43,10.80
2006,08,15,06,44,10.80
2006,08,15,06,45,10.80
2006,08,15,06,46,10.80
2006,08,15,06,47,10.80
2006,08,15,06,48,10.80
2006,08,15,06,49,10.80
2006,08,15,06,50,10.90
2006,08,15,06,51,10.90
2006,08,15,06,52,10.90
2006,08,15,06,53,10.90
2006,08,15,06,54,10.90
2006,08,15,06,55,10.90
2006,08,15,06,56,10.90
2006,08,15,06,57,10.90
2006,08,15,06,58,10.90
2006,08,15,06,59,10.90
2006,08,15,07,00,10.90
2006,08,15,07,01,10.90
2006,08,15,07,02,10.90
2006,08,15,07,03,10.90
2006,08,15,07,04,10.90
2006,08,15,07,05,10.90
2006,08,15,07,06,10.90
2006,08,15,07,07,10.90
2006,08,15,07,08,10.90
2006,08,15,07,09,11.00
2006,08,15,07,10,11.10
2006,08,15,07,11,11.10
2006,08,15,07,12,11.10
2006,08,15,07,13,11.10
2006,08,15,07,14,11.10
2006,08,15,07,15,11.10
2006,08,15,07,16,11.10
2006,08,15,07,17,11.10
2006,08,15,07,18,11.10
2006,08,15,07,19,11.10
2006,08,15,07,20,11.10
2006,08,15,07,21,11.10
2006,08,15,07,22,11.10
2006,08,15,07,23,11.10
2006,08,15,07,24,11.10
2006,08,15,07,25,11.10
2006,08,15,07,26,11.10
2006,08,15,07,27,11.10
2006,08,15,07,28,11.10
2006,08,15,07,29,11.10
2006,08,15,07,30,11.10
2006,08,15,07,31,11.10
2006,08,15,07,32,11.10
2006,08,15,07,33,11.10
2006,08,15,07,34,11.10
2006,08,15,07,35,11.10
2006,08,15,07,36,11.10
2006,08,15,07,37,11.10
2006,08,15,07,38,11.10
2006,08,15,07,39,11.10
2006,08,15,07,40,11.10
2006,08,15,07,41,11.10
2006,08,15,07,42,11.10
2006,08,15,07,43,11.10
2006,08,15,07,44,11.10
2006,08,15,07,45,11.10
2006,08,15,07,46,11.10
2006,08,15,07,47,11.10
2006,08,15,07,48,11.10
2006,08,15,07,49,11.10
2006,08,15,07,50,11.10
2006,08,15,07,51,11.10
2006,08,15,07,52,11.10
2006,08,15,07,53,11.10
2006,08,15,07,54,11.10
2006,08,15,07,55,11.20
2006,08,15,07,56,11.20
2006,08,15,07,57,11.20
2006,08,15,07,58,11.20
2006,08,15,07,59,11.20
2006,08,15,08,00,11.30
2006,08,15,08,01,11.20
2006,08,15,08,02,11.20
2006,08,15,08,03,11.20
2006,08,15,08,04,11.20
2006,08,15,08,05,11.20
2006,08,15,08,06,11.20
2006,08,15,08,07,11.20
2006,08,15,08,08,11.20
2006,08,15,08,09,11.10
2006,08,15,08,10,11.10
2006,08,15,08,11,11.10
2006,08,15,08,12,11.10
2006,08,15,08,13,11.00
2006,08,15,08,14,11.00
2006,08,15,08,15,11.10
2006,08,15,08,16,11.10
2006,08,15,08,17,11.00
2006,08,15,08,18,11.00
2006,08,15,08,19,11.10
2006,08,15,08,20,11.10
2006,08,15,08,21,11.10
2006,08,15,08,22,11.10
2006,08,15,08,23,11.10
2006,08,15,08,24,11.10
2006,08,15,08,25,11.10
2006,08,15,08,26,11.10
2006,08,15,08,27,11.10
2006,08,15,08,28,11.10
2006,08,15,08,29,11.10
2006,08,15,08,30,11.10
2006,08,15,08,31,11.10
2006,08,15,08,32,11.10
2006,08,15,08,33,11.10
2006,08,15,08,34,11.10
2006,08,15,08,35,11.10
2006,08,15,08,36,11.10
2006,08,15,08,37,11.10
2006,08,15,08,38,11.10
2006,08,15,08,39,11.10
2006,08,15,08,40,11.10
2006,08,15,08,41,11.10
2006,08,15,08,42,11.10
2006,08,15,08,43,11.10
2006,08,15,08,44,11.10
2006,08,15,08,45,11.20
2006,08,15,08,46,11.20
2006,08,15,08,47,11.20
2006,08,15,08,48,11.20
2006,08,15,08,49,11.20
2006,08,15,08,50,11.20
2006,08,15,08,51,11.30
2006,08,15,08,52,11.30
2006,08,15,08,53,11.30
2006,08,15,08,54,11.40
2006,08,15,08,55,11.40
2006,08,15,08,56,11.40
2006,08,15,08,57,11.40
2006,08,15,08,58,11.40
2006,08,15,08,59,11.40
2006,08,15,09,00,11.40
2006,08,15,09,01,11.40
2006,08,15,09,02,11.40
2006,08,15,09,03,11.40
2006,08,15,09,04,11.40
2006,08,15,09,05,11.30
2006,08,15,09,06,11.30
2006,08,15,09,07,11.40
2006,08,15,09,08,11.40
2006,08,15,09,09,11.40
2006,08,15,09,10,11.40
2006,08,15,09,11,11.40
2006,08,15,09,12,11.40
2006,08,15,09,13,11.40
2006,08,15,09,14,11.40
2006,08,15,09,15,11.40
2006,08,15,09,16,11.40
2006,08,15,09,17,11.30
2006,08,15,09,18,11.20
2006,08,15,09,19,11.20
2006,08,15,09,20,11.20
2006,08,15,09,21,11.20
2006,08,15,09,22,11.10
2006,08,15,09,23,11.10
2006,08,15,09,24,11.10
2006,08,15,09,25,11.10
2006,08,15,09,26,11.10
2006,08,15,09,27,11.10
2006,08,15,09,28,11.10
2006,08,15,09,29,11.20
2006,08,15,09,30,11.20
2006,08,15,09,31,11.20
2006,08,15,09,32,11.30
2006,08,15,09,33,11.30
2006,08,15,09,34,11.30
2006,08,15,09,35,11.40
2006,08,15,09,36,11.40
2006,08,15,09,37,11.40
2006,08,15,09,38,11.40
2006,08,15,09,39,11.50
2006,08,15,09,40,11.50
2006,08,15,09,41,11.40
2006,08,15,09,42,11.40
2006,08,15,09,43,11.40
2006,08,15,09,44,11.30
2006,08,15,09,45,11.30
2006,08,15,09,46,11.30
2006,08,15,09,47,11.30
2006,08,15,09,48,11.40
2006,08,15,09,49,11.40
2006,08,15,09,50,11.40
2006,08,15,09,51,11.60
2006,08,15,09,52,11.60
2006,08,15,09,53,11.60
2006,08,15,09,54,11.60
2006,08,15,09,55,11.60
2006,08,15,09,56,11.60
2006,08,15,09,57,11.60
2006,08,15,09,58,11.70
2006,08,15,09,59,11.70
2006,08,15,10,00,11.60
2006,08,15,10,01,11.70
2006,08,15,10,02,11.70
2006,08,15,10,03,11.70
2006,08,15,10,04,11.80
2006,08,15,10,05,11.80
2006,08,15,10,06,11.70
2006,08,15,10,07,11.70
2006,08,15,10,08,11.60
2006,08,15,10,09,11.60
2006,08,15,10,10,11.70
2006,08,15,10,11,11.70
2006,08,15,10,12,11.70
2006,08,15,10,13,11.70
2006,08,15,10,14,11.70
2006,08,15,10,15,11.70
2006,08,15,10,16,11.70
2006,08,15,10,17,11.70
2006,08,15,10,18,11.70
2006,08,15,10,19,11.70
2006,08,15,10,20,11.60
2006,08,15,10,21,11.60
2006,08,15,10,22,11.70
2006,08,15,10,23,11.70
2006,08,15,10,24,11.80
2006,08,15,10,25,11.80
2006,08,15,10,26,11.80
2006,08,15,10,27,12.00
2006,08,15,10,28,12.10
2006,08,15,10,29,12.20
2006,08,15,10,30,12.20
2006,08,15,10,31,12.30
2006,08,15,10,32,12.30
2006,08,15,10,33,12.30
2006,08,15,10,34,12.40
2006,08,15,10,35,12.50
2006,08,15,10,36,12.60
2006,08,15,10,37,12.60
2006,08,15,10,38,12.70
2006,08,15,10,39,12.80
2006,08,15,10,40,12.90
2006,08,15,10,41,13.00
2006,08,15,10,42,13.10
2006,08,15,10,43,13.20
2006,08,15,10,44,13.20
2006,08,15,10,45,13.30
2006,08,15,10,46,13.30
2006,08,15,10,47,13.30
2006,08,15,10,48,13.30
2006,08,15,10,49,13.30
2006,08,15,10,50,13.30
2006,08,15,10,51,13.30
2006,08,15,10,52,13.40
2006,08,15,10,53,13.50
2006,08,15,10,54,13.60
2006,08,15,10,55,13.70
2006,08,15,10,56,13.70
2006,08,15,10,57,13.70
2006,08,15,10,58,13.80
2006,08,15,10,59,13.80
2006,08,15,11,00,13.80
2006,08,15,11,01,13.90
2006,08,15,11,02,14.00
2006,08,15,11,03,14.10
2006,08,15,11,04,14.20
2006,08,15,11,05,14.20
2006,08,15,11,06,14.20
2006,08,15,11,07,14.10
2006,08,15,11,08,14.00
2006,08,15,11,09,13.90
2006,08,15,11,10,13.90
2006,08,15,11,11,14.00
2006,08,15,11,12,13.90
2006,08,15,11,13,13.90
2006,08,15,11,14,14.00
2006,08,15,11,15,14.00
2006,08,15,11,16,14.10
2006,08,15,11,17,14.20
2006,08,15,11,18,14.30
2006,08,15,11,19,14.40
2006,08,15,11,20,14.50
2006,08,15,11,21,14.50
2006,08,15,11,22,14.50
2006,08,15,11,23,14.50
2006,08,15,11,24,14.60
2006,08,15,11,25,14.60
2006,08,15,11,26,14.60
2006,08,15,11,27,14.50
2006,08,15,11,28,14.50
2006,08,15,11,29,14.60
2006,08,15,11,30,14.60
2006,08,15,11,31,14.70
2006,08,15,11,32,14.60
2006,08,15,11,33,14.60
2006,08,15,11,34,14.60
2006,08,15,11,35,14.60
2006,08,15,11,36,14.60
2006,08,15,11,37,14.70
2006,08,15,11,38,14.60
2006,08,15,11,39,14.50
2006,08,15,11,40,14.50
2006,08,15,11,41,14.40
2006,08,15,11,42,14.30
2006,08,15,11,43,14.20
2006,08,15,11,44,14.30
2006,08,15,11,45,14.30
2006,08,15,11,46,14.40
2006,08,15,11,47,14.50
2006,08,15,11,48,14.60
2006,08,15,11,49,14.70
2006,08,15,11,50,14.80
2006,08,15,11,51,14.80
2006,08,15,11,52,14.80
2006,08,15,11,53,14.80
2006,08,15,11,54,14.80
2006,08,15,11,55,14.80
2006,08,15,11,56,14.80
2006,08,15,11,57,14.90
2006,08,15,11,58,15.00
2006,08,15,11,59,15.00
2006,08,15,12,00,15.10
2006,08,15,12,01,15.20
2006,08,15,12,02,15.30
2006,08,15,12,03,15.20
2006,08,15,12,04,15.10
2006,08,15,12,05,15.10
2006,08,15,12,06,15.10
2006,08,15,12,07,15.30
2006,08,15,12,08,15.40
2006,08,15,12,09,15.50
2006,08,15,12,10,15.50
2006,08,15,12,11,15.50
2006,08,15,12,12,15.40
2006,08,15,12,13,15.40
2006,08,15,12,14,15.40
2006,08,15,12,15,15.30
2006,08,15,12,16,15.20
2006,08,15,12,17,15.10
2006,08,15,12,18,15.10
2006,08,15,12,19,15.10
2006,08,15,12,20,15.20
2006,08,15,12,21,15.20
2006,08,15,12,22,15.30
2006,08,15,12,23,15.50
2006,08,15,12,24,15.60
2006,08,15,12,25,15.70
2006,08,15,12,26,15.80
2006,08,15,12,27,15.80
2006,08,15,12,28,15.80
2006,08,15,12,29,15.70
2006,08,15,12,30,15.60
2006,08,15,12,31,15.50
2006,08,15,12,32,15.50
2006,08,15,12,33,15.40
2006,08,15,12,34,15.20
2006,08,15,12,35,15.10
2006,08,15,12,36,15.00
2006,08,15,12,37,14.90
2006,08,15,12,38,14.80
2006,08,15,12,39,14.60
2006,08,15,12,40,14.60
2006,08,15,12,41,14.50
2006,08,15,12,42,14.50
2006,08,15,12,43,14.60
2006,08,15,12,44,14.60
2006,08,15,12,45,14.70
2006,08,15,12,46,14.80
2006,08,15,12,47,14.90
2006,08,15,12,48,15.00
2006,08,15,12,49,15.00
2006,08,15,12,50,14.90
2006,08,15,12,51,14.90
2006,08,15,12,52,14.90
2006,08,15,12,53,15.00
2006,08,15,12,54,15.00
2006,08,15,12,55,14.90
2006,08,15,12,56,14.90
2006,08,15,12,57,14.90
2006,08,15,12,58,14.90
2006,08,15,12,59,14.80
2006,08,15,13,00,14.80
2006,08,15,13,01,14.80
2006,08,15,13,02,14.70
2006,08,15,13,03,14.70
2006,08,15,13,04,14.90
2006,08,15,13,05,14.90
2006,08,15,13,06,14.90
2006,08,15,13,07,14.80
2006,08,15,13,08,14.70
2006,08,15,13,09,14.70
2006,08,15,13,10,14.80
2006,08,15,13,11,14.90
2006,08,15,13,12,14.90
2006,08,15,13,13,15.10
2006,08,15,13,14,15.20
2006,08,15,13,15,15.30
2006,08,15,13,16,15.30
2006,08,15,13,17,15.30
2006,08,15,13,18,15.40
2006,08,15,13,19,15.40
2006,08,15,13,20,15.40
2006,08,15,13,21,15.50
2006,08,15,13,22,15.50
2006,08,15,13,23,15.60
2006,08,15,13,24,15.70
2006,08,15,13,25,15.70
2006,08,15,13,26,15.60
2006,08,15,13,27,15.70
2006,08,15,13,28,15.80
2006,08,15,13,29,15.80
2006,08,15,13,30,15.80
2006,08,15,13,31,15.80
2006,08,15,13,32,16.00
2006,08,15,13,33,16.10
2006,08,15,13,34,16.10
2006,08,15,13,35,16.20
2006,08,15,13,36,16.30
2006,08,15,13,37,16.30
2006,08,15,13,38,16.40
2006,08,15,13,39,16.50
2006,08,15,13,40,16.60
2006,08,15,13,41,16.80
2006,08,15,13,42,16.90
2006,08,15,13,43,16.90
2006,08,15,13,44,16.70
2006,08,15,13,45,16.70
2006,08,15,13,46,16.70
2006,08,15,13,47,16.70
2006,08,15,13,48,16.70
2006,08,15,13,49,16.70
2006,08,15,13,50,16.80
2006,08,15,13,51,17.00
2006,08,15,13,52,17.10
2006,08,15,13,53,17.10
2006,08,15,13,54,17.20
2006,08,15,13,55,17.30
2006,08,15,13,56,17.30
2006,08,15,13,57,17.30
2006,08,15,13,58,17.40
2006,08,15,13,59,17.40
2006,08,15,14,00,17.40
2006,08,15,14,01,17.30
2006,08,15,14,02,17.30
2006,08,15,14,03,17.30
2006,08,15,14,04,17.40
2006,08,15,14,05,17.30
2006,08,15,14,06,17.30
2006,08,15,14,07,17.30
2006,08,15,14,08,17.30
2006,08,15,14,09,17.30
2006,08,15,14,10,17.30
2006,08,15,14,11,17.40
2006,08,15,14,12,17.40
2006,08,15,14,13,17.50
2006,08,15,14,14,17.60
2006,08,15,14,15,17.60
2006,08,15,14,16,17.60
2006,08,15,14,17,17.70
2006,08,15,14,18,17.90
2006,08,15,14,19,18.10
2006,08,15,14,20,18.20
2006,08,15,14,21,18.20
2006,08,15,14,22,18.20
2006,08,15,14,23,18.10
2006,08,15,14,24,17.90
2006,08,15,14,25,17.90
2006,08,15,14,26,17.90
2006,08,15,14,27,17.90
2006,08,15,14,28,17.90
2006,08,15,14,29,17.90
2006,08,15,14,30,17.90
2006,08,15,14,31,17.90
2006,08,15,14,32,17.90
2006,08,15,14,33,17.90
2006,08,15,14,34,17.90
2006,08,15,14,35,17.90
2006,08,15,14,36,17.90
2006,08,15,14,37,17.90
2006,08,15,14,38,17.90
2006,08,15,14,39,17.90
2006,08,15,14,40,17.90
2006,08,15,14,41,18.00
2006,08,15,14,42,18.10
2006,08,15,14,43,18.10
2006,08,15,14,44,18.20
2006,08,15,14,45,18.40
2006,08,15,14,46,18.50
2006,08,15,14,47,18.60
2006,08,15,14,48,18.60
2006,08,15,14,49,18.40
2006,08,15,14,50,18.20
2006,08,15,14,51,18.10
2006,08,15,14,52,18.10
2006,08,15,14,53,18.10
2006,08,15,14,54,18.10
2006,08,15,14,55,18.20
2006,08,15,14,56,18.20
2006,08,15,14,57,18.30
2006,08,15,14,58,18.30
2006,08,15,14,59,18.40
2006,08,15,15,00,18.30
2006,08,15,15,01,18.30
2006,08,15,15,02,18.20
2006,08,15,15,03,18.30
2006,08,15,15,04,18.30
2006,08,15,15,05,18.40
2006,08,15,15,06,18.40
2006,08,15,15,07,18.50
2006,08,15,15,08,18.50
2006,08,15,15,09,18.60
2006,08,15,15,10,18.70
2006,08,15,15,11,18.80
2006,08,15,15,12,18.80
2006,08,15,15,13,18.80
2006,08,15,15,14,18.80
2006,08,15,15,15,18.90
2006,08,15,15,16,18.90
2006,08,15,15,17,19.00
2006,08,15,15,18,19.10
2006,08,15,15,19,19.10
2006,08,15,15,20,19.00
2006,08,15,15,21,18.90
2006,08,15,15,22,18.90
2006,08,15,15,23,18.90
2006,08,15,15,24,18.90
2006,08,15,15,25,18.70
2006,08,15,15,26,18.60
2006,08,15,15,27,18.60
2006,08,15,15,28,18.70
2006,08,15,15,29,18.60
2006,08,15,15,30,18.50
2006,08,15,15,31,18.40
2006,08,15,15,32,18.30
2006,08,15,15,33,18.20
2006,08,15,15,34,18.20
2006,08,15,15,35,18.30
2006,08,15,15,36,18.40
2006,08,15,15,37,18.50
2006,08,15,15,38,18.60
2006,08,15,15,39,18.60
2006,08,15,15,40,18.70
2006,08,15,15,41,18.70
2006,08,15,15,42,18.70
2006,08,15,15,43,18.60
2006,08,15,15,44,18.40
2006,08,15,15,45,18.20
2006,08,15,15,46,18.10
2006,08,15,15,47,18.00
2006,08,15,15,48,17.90
2006,08,15,15,49,17.90
2006,08,15,15,50,17.90
2006,08,15,15,51,17.90
2006,08,15,15,52,17.90
2006,08,15,15,53,17.90
2006,08,15,15,54,17.80
2006,08,15,15,55,17.70
2006,08,15,15,56,17.70
2006,08,15,15,57,17.60
2006,08,15,15,58,17.60
2006,08,15,15,59,17.60
2006,08,15,16,00,17.50
2006,08,15,16,01,17.50
2006,08,15,16,02,17.40
2006,08,15,16,03,17.50
2006,08,15,16,04,17.50
2006,08,15,16,05,17.40
2006,08,15,16,06,17.40
2006,08,15,16,07,17.50
2006,08,15,16,08,17.50
2006,08,15,16,09,17.50
2006,08,15,16,10,17.60
2006,08,15,16,11,17.50
2006,08,15,16,12,17.60
2006,08,15,16,13,17.60
2006,08,15,16,14,17.60
2006,08,15,16,15,17.70
2006,08,15,16,16,17.80
2006,08,15,16,17,17.80
2006,08,15,16,18,17.90
2006,08,15,16,19,18.00
2006,08,15,16,20,18.10
2006,08,15,16,21,18.10
2006,08,15,16,22,18.10
2006,08,15,16,23,18.10
2006,08,15,16,24,18.10
2006,08,15,16,25,18.10
2006,08,15,16,26,18.10
2006,08,15,16,27,18.10
2006,08,15,16,28,18.10
2006,08,15,16,29,18.20
2006,08,15,16,30,18.20
2006,08,15,16,31,18.20
2006,08,15,16,32,18.20
2006,08,15,16,33,18.20
2006,08,15,16,34,18.20
2006,08,15,16,35,18.10
2006,08,15,16,36,18.20
2006,08,15,16,37,18.20
2006,08,15,16,38,18.20
2006,08,15,16,39,18.20
2006,08,15,16,40,18.20
2006,08,15,16,41,18.20
2006,08,15,16,42,18.20
2006,08,15,16,43,18.20
2006,08,15,16,44,18.20
2006,08,15,16,45,18.20
2006,08,15,16,46,18.30
2006,08,15,16,47,18.40
2006,08,15,16,48,18.50
2006,08,15,16,49,18.50
2006,08,15,16,50,18.50
2006,08,15,16,51,18.40
2006,08,15,16,52,18.30
2006,08,15,16,53,18.40
2006,08,15,16,54,18.40
2006,08,15,16,55,18.40
2006,08,15,16,56,18.40
2006,08,15,16,57,18.30
2006,08,15,16,58,18.40
2006,08,15,16,59,18.40
2006,08,15,17,00,18.50
2006,08,15,17,01,18.60
2006,08,15,17,02,18.70
2006,08,15,17,03,18.70
2006,08,15,17,04,18.80
2006,08,15,17,05,18.80
2006,08,15,17,06,18.60
2006,08,15,17,07,18.50
2006,08,15,17,08,18.50
2006,08,15,17,09,18.60
2006,08,15,17,10,18.70
2006,08,15,17,11,18.70
2006,08,15,17,12,18.90
2006,08,15,17,13,18.90
2006,08,15,17,14,19.00
2006,08,15,17,15,19.10
2006,08,15,17,16,19.10
2006,08,15,17,17,19.10
2006,08,15,17,18,19.10
2006,08,15,17,19,19.10